Flight Track Log - Related Links

Times and Time Zones

All times are in EDT time to prevent confusion due to time zone crossing. See the RPA3865 flight status page for this flight to view local times or setup timezone preferences in your user account.

Time Position Orientation Groundspeed Altitude Reporting Facility
EDT Latitude Longitude Course Direction KTS MPH feet Rate Location/Type
Fri 07:44:53 PM 40.6167 -74.2000 304° West 243 280 3,000  Level New York TRACON
Fri 07:45:53 PM 40.6500 -74.2833 298° West 269 310 5,300 2,600 Climbing New York TRACON
Fri 07:46:00 PM 40.9096 -74.4227 317° Northwest  Level FlightAware Approximate
Fri 07:46:53 PM 40.7167 -74.3333 330° Northwest 239 275 8,200  Level New York TRACON
Fri 07:47:00 PM 40.9837 -74.5134 317° Northwest  Level FlightAware Approximate
Fri 07:48:00 PM 41.0566 -74.6060 316° Northwest  Level FlightAware Approximate
Fri 07:48:46 PM 40.8367 -74.4108 334° Northwest 276 318 10,800  Level New York Center
Fri 07:49:00 PM 41.1333 -74.6841 270° West  Level FlightAware Approximate
Fri 07:49:47 PM 40.9167 -74.4533 338° Northwest 297 342 12,600  Level New York Center
Fri 07:50:00 PM 41.1756 -74.8012 304° West  Level FlightAware Approximate
Fri 07:50:45 PM 40.9811 -74.5256 320° Northwest 303 349 13,900  Level New York Center
Fri 07:51:45 PM 41.0319 -74.6247 304° West 324 373 14,100 99 Climbing New York Center
Fri 07:52:46 PM 41.0847 -74.7322 303° West 338 389 14,100  Level New York Center
Fri 07:53:47 PM 41.1375 -74.8319 305° West 345 397 14,100 550 Level New York Center
Fri 07:54:46 PM 41.1925 -74.9317 306° West 337 388 15,200 1,462 Climbing New York Center
Fri 07:55:46 PM 41.2431 -75.0286 305° West 327 376 17,000 1,513 Climbing New York Center
Fri 07:56:45 PM 41.2897 -75.1197 304° West 314 361 18,200 1,350 Climbing New York Center
Fri 07:57:46 PM 41.3306 -75.2025 303° West 307 353 19,700 908 Climbing New York Center
Fri 07:58:44 PM 41.3792 -75.2942 305° West 307 353 20,000 150 Climbing New York Center
Fri 07:59:46 PM 41.4314 -75.3975 304° West 319 367 20,000  Level New York Center
Fri 08:00:46 PM 41.4833 -75.5061 303° West 334 384 20,000  Level New York Center
Fri 08:01:47 PM 41.5178 -75.6278 291° West 346 398 20,000  Level New York Center
Fri 08:02:47 PM 41.5522 -75.7550 290° West 357 411 20,000  Level New York Center
Fri 08:03:44 PM 41.5886 -75.8769 292° West 357 411 20,000  Level New York Center
Fri 08:04:46 PM 41.6247 -76.0047 291° West 357 411 20,000  Level New York Center
Fri 08:05:47 PM 41.6589 -76.1267 291° West 357 411 20,000  Level New York Center
Fri 08:06:47 PM 41.6969 -76.2519 292° West 357 411 20,000  Level New York Center
Fri 08:07:45 PM 41.7264 -76.3794 287° West 357 411 20,000  Level New York Center
Fri 08:08:46 PM 41.7067 -76.5278 260° West 357 411 20,000  Level New York Center
Fri 08:09:46 PM 41.6878 -76.6625 259° West 357 411 20,000  Level New York Center
Fri 08:10:46 PM 41.6706 -76.7969 260° West 367 422 20,000  Level New York Center
Fri 08:12:48 PM 41.6372 -77.0628 261° West 379 436 20,000  Level Cleveland Center
Fri 08:13:48 PM 41.6203 -77.1942 260° West 373 429 20,000  Level Cleveland Center
Fri 08:14:48 PM 41.5994 -77.3397 259° West 368 423 20,000  Level Cleveland Center
Fri 08:15:48 PM 41.5803 -77.4739 259° West 375 432 20,000  Level Cleveland Center
Fri 08:16:48 PM 41.5608 -77.6108 259° West 375 432 20,000  Level Cleveland Center
Fri 08:17:48 PM 41.5433 -77.7450 260° West 375 432 20,000  Level Cleveland Center
Fri 08:18:48 PM 41.5236 -77.8789 259° West 375 432 20,000  Level Cleveland Center
Fri 08:19:48 PM 41.5017 -78.0103 257° West 375 432 20,000  Level Cleveland Center
Fri 08:20:48 PM 41.4586 -78.1394 246° West 375 432 20,000  Level Cleveland Center
Fri 08:21:48 PM 41.4194 -78.2628 247° West 375 432 20,000  Level Cleveland Center
Fri 08:22:48 PM 41.3803 -78.3914 248° West 375 432 20,000  Level Cleveland Center
Fri 08:23:48 PM 41.3411 -78.5172 248° West 375 432 20,000  Level Cleveland Center
Fri 08:24:48 PM 41.3014 -78.6400 247° West 375 432 20,000  Level Cleveland Center
Fri 08:25:48 PM 41.2619 -78.7656 247° West 375 432 20,000 -350 Level Cleveland Center
Fri 08:26:48 PM 41.2219 -78.8908 247° West 375 432 19,300 -950 Descending Cleveland Center
Fri 08:27:48 PM 41.1842 -79.0022 246° West 375 432 18,100 -1,250 Descending Cleveland Center
Fri 08:28:48 PM 41.1439 -79.1217 246° West 375 432 16,800 -1,550 Descending Cleveland Center
Fri 08:29:48 PM 41.0997 -79.2550 246° West 370 426 15,000 -1,750 Descending Cleveland Center
Fri 08:30:48 PM 41.0633 -79.3714 248° West 358 412 13,300 -1,700 Descending Cleveland Center
Fri 08:31:48 PM 41.0269 -79.4794 246° West 347 399 11,600 -1,650 Descending Cleveland Center
Fri 08:32:48 PM 40.9925 -79.5792 245° Southwest 332 382 10,000 -1,550 Descending Cleveland Center
Fri 08:33:48 PM 40.9600 -79.6786 247° West 307 353 8,500 -1,000 Descending Cleveland Center
Fri 08:34:48 PM 40.9064 -79.7453 223° Southwest 286 329 8,000 -250 Descending Cleveland Center
Fri 08:35:48 PM 40.8525 -79.8172 225° Southwest 274 315 8,000  Level Cleveland Center
Fri 08:36:48 PM 40.7989 -79.8864 224° Southwest 274 315 8,000  Level Cleveland Center
Fri 08:37:48 PM 40.7492 -79.9556 227° Southwest 274 315 8,000  Level Cleveland Center
Fri 08:38:48 PM 40.6994 -80.0161 223° Southwest 261 300 8,000 -450 Level Cleveland Center
Fri 08:39:48 PM 40.6561 -80.0739 225° Southwest 242 278 7,100 -500 Descending Cleveland Center
Fri 08:40:48 PM 40.6103 -80.1319 224° Southwest 237 273 7,000 -350 Descending Cleveland Center
Fri 08:41:48 PM 40.5939 -80.2111 255° West 222 255 6,400 -600 Descending Cleveland Center
Fri 08:43:00 PM 40.4833 -80.2167 270° West  Level FlightAware Approximate
Fri 08:50:00 PM 40.4915 -80.2329 270° West  Level Estimated
Fri 08:51:00 PM 40.4915 -80.2329 270° West  Level Estimated
Fri 08:52:00 PM 40.4915 -80.2329 270° West  Level Estimated
Fri 08:53:00 PM 40.4915 -80.2329 270° West  Level Estimated

Login

Don't have an account? Register now (free) for customized features, flight alerts, and more!